DW5920 Weather Reports


time (UTC)temp
C
wind
direction
speed
KPH
gust
KPH
rain 1hr
cm
rain 24hr
cm
rain mn
cm
humidity
%
barometer
mb
20260508084503 18 236 4.8 19.3 0.00 0.00 0.00 57 1010.7
20260508083603 18 229 1.6 8.0 0.00 0.00 0.00 66 1010.7
20260508082703 18 250 3.2 12.9 0.00 0.00 0.00 67 1010.8
20260508082020 18 237 1.6 11.3 0.00 0.00 0.00 68 1010.7
20260508080903 18 184 0.0 4.8 0.00 0.00 0.00 70 1010.7
20260508080003 17 268 0.0 3.2 0.00 0.00 0.00 71 1010.7
20260508075403 17 0 0.0 0.0 0.00 0.00 0.00 72 1010.6
20260508074503 17 102 0.0 1.6 0.00 0.00 0.00 73 1010.5
20260508073603 17 116 1.6 4.8 0.00 0.00 0.00 73 1010.5
20260508072703 16 115 0.0 8.0 0.00 0.00 0.00 74 1010.3
20260508071803 16 92 0.0 4.8 0.00 0.00 0.00 76 1010.3
20260508070903 16 99 1.6 4.8 0.00 0.00 0.00 77 1010.4
20260508070004 16 99 0.0 4.8 0.00 0.00 0.00 77 1010.4
20260508065403 16 117 0.0 3.2 0.00 0.00 0.00 76 1010.4
20260508064719 15 0 0.0 0.0 0.00 0.00 0.00 79 1010.3
20260508063603 15 0 0.0 0.0 0.00 0.00 0.00 82 1010.3
20260508062703 13 0 0.0 0.0 0.00 0.00 0.00 85 1010.3
20260508061803 13 79 0.0 1.6 0.00 0.00 0.00 86 1010.1
20260508060903 13 77 0.0 1.6 0.00 0.00 0.00 85 1010.1
20260508060003 13 0 0.0 0.0 0.00 0.00 0.00 87 1010.1
20260508055403 12 0 0.0 0.0 0.00 0.00 0.00 87 1010.0
20260508054503 12 0 0.0 0.0 0.00 0.00 0.00 88 1010.1
20260508053603 12 0 0.0 0.0 0.00 0.00 0.00 88 1009.9
20260508052703 12 0 0.0 0.0 0.00 0.00 0.00 87 1009.7
20260508051803 12 0 0.0 0.0 0.00 0.00 0.00 87 1009.3
20260508050903 12 0 0.0 0.0 0.00 0.00 0.00 87 1009.5
20260508050003 12 0 0.0 0.0 0.00 0.00 0.00 86 1009.4
20260508045403 13 0 0.0 0.0 0.00 0.00 0.00 86 1009.3
20260508044503 13 0 0.0 0.0 0.00 0.00 0.00 85 1009.1
20260508043603 13 0 0.0 0.0 0.00 0.00 0.00 84 1008.9
20260508042920 13 0 0.0 0.0 0.00 0.00 0.00 84 1008.6
20260508041803 14 0 0.0 0.0 0.00 0.00 0.00 81 1008.9
20260508040903 14 0 0.0 0.0 0.00 0.00 0.00 81 1009.0
20260508040003 14 0 0.0 0.0 0.00 0.00 0.00 80 1009.2
20260508035403 14 0 0.0 0.0 0.00 0.00 0.00 81 1009.0
20260508034503 15 0 0.0 0.0 0.00 0.00 0.00 80 1008.9
20260508033603 15 125 0.0 3.2 0.00 0.00 0.00 79 1008.9
20260508032703 15 128 0.0 4.8 0.00 0.00 0.00 79 1009.1
20260508031803 15 150 0.0 4.8 0.00 0.00 0.00 79 1008.9
20260508030903 15 150 0.0 4.8 0.00 0.00 0.00 79 1009.4
20260508030004 15 157 0.0 6.4 0.00 0.00 0.00 79 1009.2
20260508025403 15 167 0.0 4.8 0.00 0.00 0.00 79 1009.3
20260508024717 15 144 0.0 3.2 0.00 0.00 0.00 79 1009.3
20260508023603 15 169 0.0 6.4 0.00 0.00 0.00 79 1009.3
20260508022703 15 170 1.6 8.0 0.00 0.00 0.00 79 1009.3
20260508022019 15 166 1.6 8.0 0.00 0.00 0.00 79 1009.4
20260508020903 15 159 1.6 4.8 0.00 0.00 0.00 79 1009.3
20260508020003 15 155 1.6 6.4 0.00 0.00 0.00 78 1009.3
20260508015403 15 167 1.6 8.0 0.00 0.00 0.00 79 1009.3
20260508014718 15 174 1.6 8.0 0.00 0.00 0.00 79 1009.3
20260508013603 15 179 1.6 4.8 0.00 0.00 0.00 79 1009.5
20260508012703 15 203 0.0 6.4 0.00 0.00 0.00 79 1009.5
20260508011803 15 197 0.0 4.8 0.00 0.00 0.00 79 1009.5
20260508010903 15 159 0.0 6.4 0.00 0.00 0.00 79 1009.5
20260508010003 15 182 0.0 6.4 0.00 0.00 0.00 79 1009.7
20260508005403 15 178 0.0 6.4 0.00 0.00 0.00 78 1009.7
20260508004503 15 181 0.0 6.4 0.00 0.00 0.00 77 1009.8
20260508003603 15 173 1.6 4.8 0.00 0.00 0.00 77 1009.8
20260508002703 15 172 1.6 6.4 0.00 0.00 0.00 77 1009.7
20260508001803 15 156 0.0 4.8 0.00 0.00 0.00 76 1009.7
20260508000903 16 161 1.6 6.4 0.00 0.00 0.00 75 1009.8
20260508000003 16 180 1.6 4.8 0.00 0.00 0.00 75 1009.9
20260507235403 16 212 0.0 3.2 0.00 0.00 0.00 75 1009.9
20260507234503 16 197 0.0 3.2 0.00 0.00 0.00 74 1009.9
20260507233603 16 0 0.0 0.0 0.00 0.00 0.00 73 1009.7
20260507232918 16 0 0.0 0.0 0.00 0.00 0.00 73 1009.8
20260507231803 16 160 0.0 6.4 0.00 0.00 0.00 73 1009.9
20260507230903 16 137 0.0 1.6 0.00 0.00 0.00 72 1010.0
20260507230003 16 142 0.0 4.8 0.00 0.00 0.00 70 1009.9
20260507225403 16 174 0.0 3.2 0.00 0.00 0.00 69 1010.2
20260507224720 16 183 0.0 3.2 0.00 0.00 0.00 67 1010.3
20260507223603 16 190 0.0 3.2 0.00 0.00 0.00 65 1010.4
20260507222703 16 177 0.0 4.8 0.00 0.00 0.00 66 1010.4
20260507222016 16 176 0.0 3.2 0.00 0.00 0.00 66 1010.5
20260507220903 16 186 0.0 3.2 0.00 0.00 0.00 66 1010.3
20260507220004 16 204 0.0 3.2 0.00 0.00 0.00 65 1010.2
20260507215403 16 206 0.0 3.2 0.00 0.00 0.00 65 1010.2
20260507214720 16 0 0.0 0.0 0.00 0.00 0.00 65 1010.3
20260507213603 17 235 0.0 1.6 0.00 0.00 0.00 64 1010.3
20260507212703 17 0 0.0 0.0 0.00 0.00 0.00 63 1010.2
20260507211803 17 0 0.0 0.0 0.00 0.00 0.00 64 1010.1
20260507211120 17 286 0.0 4.8 0.00 0.00 0.00 63 1010.1
20260507210003 17 278 0.0 1.6 0.00 0.00 0.00 63 1009.9
20260507205403 17 0 0.0 0.0 0.00 0.00 0.00 62 1009.9
20260507204503 17 283 0.0 1.6 0.00 0.00 0.00 62 1009.9
20260507203603 17 283 0.0 3.2 0.00 0.00 0.00 61 1009.9
20260507202703 17 262 0.0 3.2 0.00 0.00 0.00 60 1009.9
20260507202018 17 262 0.0 3.2 0.00 0.00 0.00 59 1009.9
20260507200903 18 263 0.0 3.2 0.00 0.00 0.00 59 1009.8
20260507200003 18 255 0.0 8.0 0.00 0.00 0.00 59 1009.7
20260507195403 18 272 0.0 8.0 0.00 0.00 0.00 59 1009.8
20260507194503 18 251 1.6 11.3 0.00 0.00 0.00 57 1009.7
20260507193819 18 251 1.6 11.3 0.00 0.00 0.00 56 1009.6
20260507192703 18 260 3.2 12.9 0.00 0.00 0.00 56 1009.4
20260507192018 19 252 3.2 12.9 0.00 0.00 0.00 55 1009.3
20260507190903 19 252 3.2 12.9 0.00 0.00 0.00 55 1009.1
20260507190218 20 247 4.8 19.3 0.00 0.00 0.00 54 1009.0
20260507185403 20 250 8.0 19.3 0.00 0.00 0.00 52 1008.8
20260507184503 20 251 8.0 22.5 0.00 0.00 0.00 51 1008.6
20260507183603 20 251 9.7 22.5 0.00 0.00 0.00 50 1008.5
20260507182703 21 255 8.0 20.9 0.00 0.00 0.00 50 1008.4
20260507181803 21 254 8.0 19.3 0.00 0.00 0.00 50 1008.2
20260507180903 21 259 6.4 19.3 0.00 0.00 0.00 50 1008.2
20260507180004 21 251 6.4 20.9 0.00 0.00 0.00 48 1008.1
20260507175403 22 250 6.4 17.7 0.00 0.00 0.00 47 1008.0
20260507174503 22 256 6.4 20.9 0.00 0.00 0.00 46 1007.8
20260507173603 22 254 9.7 22.5 0.00 0.00 0.00 45 1007.7
20260507172703 22 239 9.7 20.9 0.00 0.00 0.00 44 1007.6
20260507171803 22 243 6.4 20.9 0.00 0.00 0.00 44 1007.6
20260507170903 22 245 8.0 20.9 0.00 0.00 0.00 43 1007.5
20260507170003 23 244 8.0 19.3 0.00 0.00 0.00 43 1007.4
20260507165403 23 245 8.0 19.3 0.00 0.00 0.00 43 1007.4
20260507164503 23 253 6.4 17.7 0.00 0.00 0.00 42 1007.3
20260507163821 23 229 6.4 17.7 0.00 0.00 0.00 42 1007.2
20260507162703 24 237 6.4 17.7 0.00 0.00 0.00 39 1007.2
20260507161803 24 242 4.8 16.1 0.00 0.00 0.00 39 1007.1
20260507160903 24 223 3.2 16.1 0.00 0.00 0.00 37 1007.2
20260507160003 24 222 4.8 19.3 0.00 0.00 0.00 40 1007.0
20260507155616 24 219 6.4 17.7 0.00 0.00 0.00 38 1007.1
20260507154503 24 212 4.8 17.7 0.00 0.00 0.00 38 1007.2
20260507153603 24 212 4.8 20.9 0.00 0.00 0.00 37 1007.1
20260507152703 25 206 3.2 14.5 0.00 0.00 0.00 37 1007.1
20260507151803 24 214 1.6 14.5 0.00 0.00 0.00 37 1007.2
20260507150903 24 211 3.2 12.9 0.00 0.00 0.00 39 1007.3
20260507150221 24 231 6.4 14.5 0.00 0.00 0.00 40 1007.4
20260507145403 24 213 6.4 16.1 0.00 0.00 0.00 41 1007.5
20260507144719 24 224 6.4 14.5 0.00 0.00 0.00 41 1007.4
20260507143603 23 211 6.4 17.7 0.00 0.00 0.00 39 1007.5
20260507142703 23 224 4.8 14.5 0.00 0.00 0.00 40 1007.7
20260507141803 24 210 3.2 17.7 0.00 0.00 0.00 37 1007.8
20260507140903 23 235 3.2 14.5 0.00 0.00 0.00 37 1007.8
20260507140003 24 221 3.2 16.1 0.00 0.00 0.00 38 1007.9
20260507135403 24 220 4.8 16.1 0.00 0.00 0.00 40 1007.9
20260507134503 23 225 4.8 17.7 0.00 0.00 0.00 42 1008.0
20260507133603 23 220 3.2 16.1 0.00 0.00 0.00 42 1008.2
20260507132703 23 223 6.4 16.1 0.00 0.00 0.00 43 1008.2
20260507131803 23 227 6.4 19.3 0.00 0.00 0.00 41 1008.3
20260507130903 23 227 6.4 16.1 0.00 0.00 0.00 41 1008.2
20260507130003 24 207 4.8 17.7 0.00 0.00 0.00 44 1008.3
20260507125403 23 190 4.8 19.3 0.00 0.00 0.00 42 1008.4
20260507124503 23 228 6.4 19.3 0.00 0.00 0.00 42 1008.5
20260507123603 23 217 6.4 19.3 0.00 0.00 0.00 44 1008.5
20260507122705 23 223 3.2 14.5 0.00 0.00 0.00 45 1008.6
20260507121803 23 185 3.2 16.1 0.00 0.00 0.00 45 1008.7
20260507120903 23 209 3.2 16.1 0.00 0.00 0.00 45 1008.8
20260507120004 23 194 3.2 19.3 0.00 0.00 0.00 45 1008.9
20260507115403 23 189 4.8 17.7 0.00 0.00 0.00 46 1008.8
20260507114503 23 219 3.2 12.9 0.00 0.00 0.00 48 1009.0
20260507113603 23 199 6.4 16.1 0.00 0.00 0.00 49 1009.1
20260507112703 23 164 8.0 14.5 0.00 0.00 0.00 49 1009.1
20260507112018 22 167 6.4 14.5 0.00 0.00 0.00 50 1009.3
20260507111121 23 168 3.2 14.5 0.00 0.00 0.00 47 1009.3
20260507110003 22 200 3.2 16.1 0.00 0.00 0.00 49 1009.3
20260507105403 22 176 3.2 16.1 0.00 0.00 0.00 54 1009.4
20260507104504 21 123 6.4 16.1 0.00 0.00 0.00 54 1009.4
20260507103603 21 134 4.8 19.3 0.00 0.00 0.00 55 1009.5
20260507102703 22 169 3.2 14.5 0.00 0.00 0.00 56 1009.6
20260507101803 22 180 3.2 16.1 0.00 0.00 0.00 57 1009.6
20260507100903 21 205 4.8 16.1 0.00 0.00 0.00 58 1009.7
20260507100219 21 122 6.4 17.7 0.00 0.00 0.00 62 1009.8
20260507095620 21 129 6.4 12.9 0.00 0.00 0.00 61 1009.7
20260507094503 21 133 4.8 16.1 0.00 0.00 0.00 59 1009.7
20260507093603 21 200 3.2 9.7 0.00 0.00 0.00 63 1009.8
20260507092703 20 179 3.2 12.9 0.00 0.00 0.00 64 1009.8
20260507091803 20 126 1.6 11.3 0.00 0.00 0.00 67 1009.8
20260507090903 19 169 1.6 9.7 0.00 0.00 0.00 69 1009.9
20260507090219 18 176 1.6 8.0 0.00 0.00 0.00 70 1009.9
20260507085403 18 196 1.6 9.7 0.00 0.00 0.00 72 1009.9